Simultaneous Nadir Overpasses (SNOs) Predictions

Prediction of SNOs between NOAA-19 and TERRA Satellite Orbit:

Table of predicted SNOs for the next 14.0 days since TLE Epoch: 7/11/2020
Index Date (NOAA-19) Time (NOAA-19) Lat,Lon (NOAA-19) SZA (NOAA-19 ) Date (TERRA) Time (TERRA) Lat,Lon (TERRA) SZA (TERRA ) Distance(km) Time Diff (sec)
1 07/12/2020 00:18:32 -79.54, 24.24 121.16 07/12/2020 00:18:31 -79.57, 24.19 121.15 2.74 1
2 07/14/2020 05:51:44 79.58, 120.67 59.17 07/14/2020 05:52:15 79.56, 120.73 59.18 2.09 31
3 07/14/2020 06:42:48 -79.54, -71.70 120.82 07/14/2020 06:41:43 -79.53, -71.85 120.87 3.17 65
4 07/16/2020 11:25:06 -79.58,-142.62 120.47 07/16/2020 11:26:01 -79.59,-142.51 120.43 2.46 55
5 07/16/2020 12:16:00 79.55, 24.97 59.54 07/16/2020 12:15:28 79.55, 24.85 59.52 2.43 32
6 07/18/2020 17:49:22 -79.56, 121.67 120.07 07/18/2020 17:49:15 -79.57, 121.53 120.07 3.16 7
7 07/20/2020 23:22:34 79.57,-141.70 60.36 07/20/2020 23:23:01 79.60,-141.71 60.39 2.96 27
8 07/21/2020 00:13:39 -79.56, 25.65 119.64 07/21/2020 00:12:29 -79.57, 25.75 119.65 2.54 70
9 07/23/2020 04:55:56 -79.58, -45.06 119.20 07/23/2020 04:56:50 -79.60, -45.19 119.18 2.88 54
